Torna al catalogo

STARLINK-31627

AttivoComunicazioniVLEO
NORAD 59268·PAYLOAD·🇺🇸 United States

Lanciato Mar 19, 2024 da Vandenberg Space Force Base

Loading…

Prossimi Passaggi (prossime 24 ore)

TLE

AggiornatoSource: CelesTrak SupGP

Epoca: Sep 15, 2026, 02:25 UTC

1 59268C 24050Q   26258.10118056  .00026819  00000+0  79257-3 0  2582
2 59268  53.1594  18.7468 0000997  93.5237 236.6283 15.34370083    12

Traccia STARLINK-31627 in tempo reale con AllMySat

Download on the App Store